User: anonymous   Login
Location: Burgwalden
(48.2830°N, 10.7576°E)
Time: 03:05:15
(UTC+00:00)
Language:

Thor Agena Rocket - Orbit

View from above orbital plane
View from above orbital plane
View from above satellite
View from above satellite

Ground track
Ground track

The orbit data is extracted from the following two-line orbital elements,

1   733U 64002A   24062.86361709  .00000413  00000-0  16742-3 0  9990
2   733  99.0617  27.3463 0032431 242.9811 116.8060 14.33081332133166
Epoch (UTC): 02 March 2024 20:43:36
Eccentricity: 0.0032431
inclination: 99.0617°
perigee height: 758 km
apogee height: 804 km
right ascension of ascending node: 27.3463°
argument of perigee: 242.9811°
revolutions per day: 14.33081332
mean anomaly at epoch: 116.8060°
orbit number at epoch: 13316

The dashed part of the orbit path shows where the satellite is in the earth's shadow,  

DLR